RH
36 42 44 46 49 52 54 56 58 59 60 58 55 54 52 53 54 45 51 70 70 72 69 70 70 74 75 77 73 70 78 81
45 45 44 48 50 52 56 60 64 66 68 69 68 69 64 56 53 55 52 66 70 76 82 74 70 78 81 77 77 87 88 85
46 48 46 51 54 57 60 65 67 68 75 75 78 79 75 71 65 54 52 51 52 74 81 94 93 84 87 84 77 90 95 91
46 47 56 55 58 62 66 68 70 74 75 79 81 81 81 84 80 70 63 69 68 64 70 85 95 90 83 79 97 87 97 96
44 48 56 61 63 64 67 72 75 77 78 82 87 91 92 91 92 89 84 69 74 74 74 77 78 90 80 78 81 72 66 91
48 51 55 60 62 67 70 76 79 80 82 86 90 92 94 94 94 95 94 91 83 82 74 75 73 80 76 84 87 63 86 90
48 50 55 59 64 69 74 80 81 82 86 89 94 94 95 96 97 97 97 98 97 90 83 74 75 74 77 92 81 87 95 86
53 54 57 63 68 73 76 82 84 86 89 91 96 99 99 100 99 98 98 98 99 100 94 73 73 78 75 78 83 78 80 96
54 56 62 64 70 76 79 82 87 90 94 96 97 99 100 100 100 100 100 100 100 99 100 89 80 57 63 86 88 71 79 90
53 58 62 66 70 76 81 83 92 94 97 98 98 98 100 100 100 100 100 100 100 100 100 98 88 54 48 90 79 83 88 75
54 58 63 67 69 73 82 85 89 94 97 98 99 100 100 100 100 100 100 100 100 100 100 98 92 73 46 85 80 83 98 99
57 60 64 69 72 74 82 86 91 95 97 99 100 100 100 100 100 100 100 100 100 100 99 100 94 87 71 81 91 100 97 98
59 62 66 70 75 77 80 86 92 96 97 99 100 100 100 100 100 100 100 100 100 100 100 100 88 71 61 70 98 98 97 100
64 66 70 74 77 78 82 88 94 96 97 99 100 100 100 100 100 100 100 100 100 100 100 100 100 78 81 92 100 99 96 96
67 69 72 78 79 83 85 90 94 98 98 100 100 100 100 100 100 100 100 100 100 100 100 100 100 99 99 100 100 100 100 99
68 69 74 80 82 90 89 93 96 98 99 100 100 100 100 100 100 100 100 100 100 100 100 100 100 98 100 100 99 100 99 97
71 72 77 84 89 96 98 99 99 99 100 100 100 100 100 100 99 100 100 100 100 100 100 100 100 100 99 99 98 100 99 91
79 85 90 94 100 100 100 98 98 99 100 99 99 100 100 100 100 99 100 99 100 100 100 100 100 100 100 93 99 100 100 100
88 96 99 100 98 99 97 96 98 99 99 100 99 100 100 100 100 100 100 99 99 99 100 100 100 100 100 97 95 95 100 100
Wind_Speed
22 31 30 28 25 21 20 19 18 17 15 15 14 14 14 14 16 20 22 28 30 35 38 42 39 35 28 37 40 40 36 34
26 29 29 26 22 20 19 18 19 19 20 21 22 24 25 25 25 23 21 17 29 36 42 43 41 43 36 37 36 34 30 31
17 24 28 28 24 19 18 17 18 19 20 19 17 18 16 23 27 30 32 32 29 29 40 37 36 40 36 35 38 23 19 31
19 16 24 28 26 23 20 18 18 19 21 24 25 24 21 19 22 28 30 28 28 28 33 39 36 39 38 34 25 21 15 18
18 16 21 23 27 23 20 19 19 18 21 22 22 18 20 23 26 29 35 38 38 34 29 39 42 39 39 39 40 24 31 31
18 17 22 27 26 23 20 21 20 22 22 21 21 20 21 24 26 29 33 34 36 32 33 31 42 40 40 43 38 31 39 34
17 24 24 28 23 19 19 22 22 23 25 23 22 23 25 25 27 29 30 30 34 34 31 31 34 42 40 40 40 39 37 33
15 16 15 25 21 19 17 22 24 26 26 25 24 23 24 24 27 28 32 31 31 32 29 36 30 37 37 37 37 40 41 40
15 13 18 20 19 20 21 21 24 24 25 26 26 24 25 25 26 30 33 32 34 36 35 34 35 30 34 36 39 42 43 37
13 17 21 21 19 21 23 23 23 26 25 25 26 27 27 28 30 31 31 31 33 37 37 35 34 38 32 36 39 43 43 45
12 15 20 20 21 21 23 24 23 26 26 26 26 28 29 29 29 29 31 31 32 29 26 32 34 40 38 39 40 36 36 31
13 14 17 19 21 21 21 24 25 27 28 27 28 30 30 30 28 28 30 31 30 27 23 30 33 37 33 38 35 32 32 33
10 14 17 17 20 22 23 25 25 26 27 28 28 29 29 28 28 29 30 31 30 28 23 21 27 30 31 36 29 29 31 32
10 13 17 20 20 21 21 22 24 26 27 28 29 29 30 29 30 31 30 33 33 33 25 21 15 14 29 32 31 31 29 32
13 12 16 19 20 20 21 23 25 27 28 29 29 30 30 29 29 31 32 34 35 36 32 26 22 16 0 7 26 26 26 26
14 13 13 16 18 20 22 24 26 27 26 27 28 29 28 29 31 32 33 35 35 32 30 31 28 32 24 10 13 18 25 22
10 11 17 17 20 21 22 24 25 24 24 26 28 27 28 30 31 34 36 37 34 34 34 34 36 30 32 14 8 23 18 18
11 12 17 19 19 20 21 23 23 25 25 26 26 25 28 30 31 33 34 36 34 36 37 36 38 40 36 25 29 22 21 20
10 13 15 19 22 21 23 24 22 23 24 24 25 28 30 31 33 34 33 31 33 38 40 39 39 44 39 33 26 40 31 28
Wind_Direction
109 94 85 78 71 59 43 27 6 351 344 332 322 317 308 307 295 288 283 260 249 244 241 237 230 233 224 216 215 214 210 207
96 88 81 73 61 52 39 24 10 4 358 352 342 334 319 301 295 290 280 293 258 250 235 234 240 234 233 220 216 208 205 203
94 86 83 79 70 61 46 28 13 7 3 353 347 334 320 307 297 290 290 287 279 269 244 232 228 228 232 226 222 203 197 188
98 84 80 74 63 51 38 20 10 0 354 346 343 335 328 321 313 297 285 286 286 289 265 239 227 227 226 227 213 215 167 194
91 87 74 65 55 42 19 8 2 359 359 355 348 336 320 313 307 301 296 289 291 288 295 258 238 234 233 231 222 238 194 239
94 89 81 67 53 33 14 4 6 2 0 356 345 332 318 312 309 305 302 301 295 295 282 296 244 237 239 233 216 208 195 190
82 79 73 63 53 35 15 9 3 359 356 350 344 333 324 318 312 306 301 299 298 294 287 286 261 239 238 229 226 202 200 204
70 64 65 64 50 36 26 14 4 355 350 347 337 333 328 319 312 307 303 299 292 287 285 269 278 243 244 241 224 214 205 200
73 71 65 56 46 34 27 16 5 357 351 344 336 335 332 323 312 308 298 290 286 282 274 266 269 251 239 235 233 223 212 210
65 61 56 52 39 31 25 8 3 358 354 347 340 337 335 327 319 308 301 295 287 294 267 260 262 252 231 234 229 218 212 210
56 63 50 44 32 26 21 12 2 356 355 354 345 340 337 330 326 316 313 309 304 304 275 260 253 243 227 233 230 215 200 195
53 54 49 41 31 21 16 9 1 357 358 353 350 346 342 337 330 324 326 325 323 325 314 263 250 238 236 238 221 204 198 194
58 50 42 33 28 17 15 7 0 357 356 357 354 348 344 344 336 337 342 336 343 342 338 318 254 251 244 236 213 207 199 193
56 46 37 30 19 12 12 8 2 359 359 360 359 353 350 350 347 349 351 355 358 360 359 358 334 270 249 225 221 216 214 206
39 34 27 24 16 7 10 9 7 4 3 4 1 357 355 353 359 0 3 8 9 5 10 12 15 29 182 286 226 207 197 198
27 24 20 16 12 10 11 11 10 7 5 6 3 1 0 7 10 11 13 18 18 15 13 21 25 21 18 318 236 207 190 183
31 29 26 21 14 12 13 12 8 7 9 7 8 4 10 14 16 20 21 20 19 24 21 23 25 18 15 11 283 199 174 175
40 32 33 26 19 19 18 14 9 12 12 11 11 11 17 18 20 23 25 25 21 28 28 28 27 23 27 33 37 73 126 153
37 30 31 30 28 26 29 25 17 16 16 14 14 20 20 18 22 23 23 20 23 30 30 30 32 27 33 46 46 52 51 65